Stations météo

réclame
Mon MeteoGroup
Woensdrecht, Pays-Bas (6340): Température de l'air & dewpoint: 09.08.2020 16:00:00 - 15.08.2020 16:00:00 (CEST)Woensdrecht, Pays-Bas (6340): Température de l'air 5cm: 09.08.2020 16:00:00 - 15.08.2020 16:00:00 (CEST)Woensdrecht, Pays-Bas (6340): Vitesse du vent & gusts: 09.08.2020 16:00:00 - 15.08.2020 16:00:00 (CEST)Woensdrecht, Pays-Bas (6340): Direction du vent: 09.08.2020 16:00:00 - 15.08.2020 16:00:00 (CEST)Woensdrecht, Pays-Bas (6340): reduced air pressure: 09.08.2020 16:00:00 - 15.08.2020 16:00:00 (CEST)Woensdrecht, Pays-Bas (6340): visibility: 09.08.2020 16:00:00 - 15.08.2020 16:00:00 (CEST)Woensdrecht, Pays-Bas (6340): Quantités de précipitations: 09.08.2020 16:00:00 - 15.08.2020 16:00:00 (CEST)
Date & Time tt [°C] td [°C] tt 5cm [°C] ff [km/h] ff [knt] fx [km/h] fx [knt] dd ppp [hPa] vv [km] rr [mm]
15.08.2020 16:00:00 25,6 18,1 26,0 5 3 11 6 N 1014,1 10 0,0
15.08.2020 15:00:00 25,8 18,3 26,3 8 4 14 8 NE 1014,5 10 0,0
15.08.2020 14:00:00 25,0 17,9 26,0 8 4 11 6 - 1014,8 10 0,0
15.08.2020 13:00:00 24,4 18,0 25,6 4 2 11 6 - 1014,8 10 0,0
15.08.2020 12:00:00 24,5 18,4 27,0 5 3 18 10 W 1015,0 10 0,0
15.08.2020 11:00:00 22,2 18,4 22,5 2 1 7 4 - 1015,1 7 0,0
15.08.2020 10:00:00 22,7 19,4 23,9 2 1 7 4 - 1015,1 5 0,0
15.08.2020 09:00:00 20,1 19,3 20,4 4 2 7 4 - 1015,0 2,3 0,0
15.08.2020 08:00:00 17,4 17,3 17,0 5 3 7 4 ENE 1014,8 2,2 0,0
15.08.2020 07:00:00 15,1 15,0 14,6 4 2 7 4 - 1014,7 3,5 0,0
15.08.2020 06:00:00 15,9 15,9 14,3 0 0 7 4 N 1014,3 5 0,0
15.08.2020 05:00:00 15,9 15,7 15,4 4 2 7 4 ESE 1014,1 3,1 0,0
15.08.2020 04:00:00 16,2 16,2 15,2 4 2 7 4 SSE 1014,3 3,2 0,0
15.08.2020 03:00:00 16,3 16,3 15,3 2 1 7 4 SSE 1014,6 2,8 0,0
15.08.2020 02:00:00 16,8 16,8 15,5 2 1 4 2 S 1014,6 3,8 0,0
15.08.2020 01:00:00 16,9 16,9 15,2 2 1 7 4 S 1014,6 2,9 0,0
15.08.2020 00:00:00 17,9 17,7 16,5 2 1 7 4 SSW 1014,5 5 0,0
14.08.2020 23:00:00 18,0 17,7 16,3 0 0 4 2 N 1014,4 2,5 0,0
14.08.2020 22:00:00 19,0 18,5 17,5 5 3 7 4 NNW 1014,2 4,0 0,0
14.08.2020 21:00:00 20,0 19,0 19,4 4 2 11 6 - 1013,7 4,7 0,0
14.08.2020 20:00:00 21,3 18,9 21,4 9 5 18 10 WNW 1013,5 5 0,0
14.08.2020 19:00:00 21,6 19,6 21,8 9 5 22 12 NW 1013,2 4,1 0,0
14.08.2020 18:00:00 21,7 19,6 22,5 13 7 25 14 WNW 1013,0 4,9 0,0
14.08.2020 17:00:00 22,2 20,2 22,5 15 8 29 16 W 1012,7 5 0,0
14.08.2020 16:00:00 24,6 19,1 24,9 5 3 14 8 SW 1012,3 10 0,0
14.08.2020 15:00:00 24,6 18,8 25,6 4 2 14 8 - 1012,5 10 0,0
14.08.2020 14:00:00 24,1 19,0 25,4 8 4 18 10 SSE 1012,6 10 0,0
14.08.2020 13:00:00 24,8 18,5 27,3 8 4 18 10 - 1012,5 10 0,0
14.08.2020 12:00:00 22,5 18,9 22,9 8 4 14 8 SW 1012,5 10 0,0
14.08.2020 11:00:00 23,6 18,8 25,2 8 4 22 12 WSW 1012,5 10 0,0
14.08.2020 10:00:00 22,9 19,0 23,6 15 8 22 12 SW 1012,3 10 0,0
14.08.2020 09:00:00 21,9 19,0 22,4 5 3 14 8 S 1012,1 10 0,0
14.08.2020 08:00:00 19,6 18,4 18,5 8 4 14 8 S 1011,9 10 0,0
14.08.2020 07:00:00 18,0 18,0 16,4 5 3 7 4 ESE 1011,8 3,1 0,0
14.08.2020 06:00:00 17,4 17,3 15,5 2 1 7 4 SSE 1011,6 1,2 0,0
14.08.2020 05:00:00 18,0 18,0 15,8 4 2 7 4 S 1011,3 1,9 0,0
14.08.2020 04:00:00 18,2 17,8 16,8 2 1 7 4 SSE 1011,5 3,3 0,0
14.08.2020 03:00:00 17,9 17,9 16,6 2 1 7 4 - 1011,7 1,4 0,0
14.08.2020 02:00:00 18,5 18,5 16,7 2 1 4 2 E 1011,9 0,6 0,0
14.08.2020 01:00:00 19,3 19,3 18,2 2 1 7 4 E 1012,3 2,0 0,0
14.08.2020 00:00:00 19,3 19,1 18,6 2 1 14 8 - 1012,4 4,1 0,0
13.08.2020 23:00:00 19,1 19,1 18,1 4 2 7 4 WSW 1012,4 5 0,0
13.08.2020 22:00:00 18,8 18,7 18,3 2 1 14 8 - 1011,4 6 0,0
13.08.2020 21:00:00 19,8 19,1 19,4 5 3 22 12 SW 1011,3 10 0,0
13.08.2020 20:00:00 19,9 18,9 19,8 4 2 22 12 - 1010,6 10 0,2
13.08.2020 19:00:00 19,6 18,1 19,0 9 5 47 25 W 1012,1 10 26,0
13.08.2020 18:00:00 23,7 19,0 24,0 24 13 36 19 - 1011,2 7 0,0
13.08.2020 17:00:00 30,1 20,8 32,0 16 9 22 12 WNW 1010,4 9 0,0
13.08.2020 16:00:00 29,6 20,4 31,0 13 7 22 12 WNW 1010,9 7 0,0
13.08.2020 15:00:00 29,7 21,2 32,6 11 6 18 10 W 1011,1 6 0,0
13.08.2020 14:00:00 29,2 21,9 31,5 9 5 22 12 W 1011,2 5 0,0
13.08.2020 13:00:00 28,1 21,4 30,5 9 5 18 10 WSW 1010,9 5 0,0
13.08.2020 12:00:00 28,1 22,2 30,3 11 6 18 10 - 1011,0 6 0,0
13.08.2020 11:00:00 27,7 19,9 29,2 4 2 11 6 - 1011,0 10 0,0
13.08.2020 10:00:00 23,9 20,2 24,1 4 2 14 8 - 1011,3 10 0,0
13.08.2020 09:00:00 23,9 19,4 24,9 2 1 7 4 - 1011,3 10 0,0
13.08.2020 08:00:00 21,4 19,0 20,7 4 2 11 6 - 1011,1 10 0,0
13.08.2020 07:00:00 20,7 18,9 19,5 2 1 7 4 - 1011,2 10 0,0
13.08.2020 06:00:00 21,6 18,9 20,7 4 2 7 4 - 1010,9 10 0,0
13.08.2020 05:00:00 22,1 18,6 21,1 4 2 11 6 - 1010,9 10 0,0
13.08.2020 04:00:00 22,1 18,7 20,6 5 3 11 6 E 1010,9 10 0,0
13.08.2020 03:00:00 21,6 18,9 20,1 8 4 11 6 ENE 1011,0 10 0,0
13.08.2020 02:00:00 21,6 19,2 20,7 8 4 14 8 E 1011,2 10 0,0
13.08.2020 01:00:00 22,0 19,4 20,1 5 3 11 6 E 1011,3 10 0,0
13.08.2020 00:00:00 23,3 20,0 21,8 4 2 11 6 - 1011,6 10 0,0
12.08.2020 23:00:00 25,0 20,0 23,1 9 5 11 6 ENE 1011,8 10 0,0
12.08.2020 22:00:00 25,4 20,6 23,3 5 3 7 4 ENE 1011,9 10 0,0
12.08.2020 21:00:00 28,1 20,5 26,6 5 3 14 8 ENE 1011,5 10 0,0
12.08.2020 20:00:00 30,8 19,7 30,2 11 6 18 10 NE 1010,8 10 0,0
12.08.2020 19:00:00 32,0 18,7 32,1 11 6 18 10 E 1011,2 10 0,0
12.08.2020 18:00:00 32,2 18,9 33,6 8 4 14 8 NE 1011,6 10 0,0
12.08.2020 17:00:00 32,1 19,5 33,9 8 4 18 10 - 1012,2 10 0,0
12.08.2020 16:00:00 31,3 18,5 32,6 8 4 22 12 E 1012,8 10 0,0
12.08.2020 15:00:00 30,8 19,3 32,9 5 3 18 10 - 1013,2 10 0,0
12.08.2020 14:00:00 29,7 18,6 32,3 8 4 18 10 ESE 1013,5 10 0,0
12.08.2020 13:00:00 29,0 18,9 31,2 9 5 25 14 ENE 1013,7 10 0,0
12.08.2020 12:00:00 27,7 18,9 29,9 8 4 14 8 - 1013,9 10 0,0
12.08.2020 11:00:00 26,3 19,5 28,3 5 3 14 8 NE 1014,0 10 0,0
12.08.2020 10:00:00 24,3 19,3 26,3 8 4 14 8 E 1014,2 10 0,0
12.08.2020 09:00:00 23,2 19,3 23,6 8 4 14 8 E 1014,0 10 0,0
12.08.2020 08:00:00 21,4 18,9 21,1 8 4 14 8 ESE 1014,1 10 0,0
12.08.2020 07:00:00 19,6 19,1 18,2 5 3 14 8 ENE 1014,1 3,1 0,0
12.08.2020 06:00:00 19,8 19,4 19,1 5 3 11 6 E 1013,8 3,5 0,0
12.08.2020 05:00:00 20,5 19,8 19,6 8 4 11 6 E 1013,9 5 0,0
12.08.2020 04:00:00 19,9 19,9 18,9 8 4 14 8 ENE 1014,0 2,4 0,0
12.08.2020 03:00:00 20,4 19,6 19,8 9 5 18 10 E 1014,0 6 0,0
12.08.2020 02:00:00 21,2 19,7 20,2 13 7 18 10 E 1014,3 9 0,0
12.08.2020 01:00:00 20,3 20,1 19,8 5 3 14 8 ENE 1014,0 7 0,0
12.08.2020 00:00:00 21,2 20,6 21,0 9 5 14 8 E 1013,7 7 0,7
11.08.2020 23:00:00 21,4 20,3 21,0 9 5 14 8 - 1014,8 10 0,3
11.08.2020 22:00:00 20,8 20,1 20,5 4 2 43 23 - 1015,1 10 5,0
11.08.2020 21:00:00 20,8 18,3 20,3 29 16 65 35 N 1014,6 10 5,0
11.08.2020 20:00:00 31,2 19,5 31,6 11 6 22 12 N 1013,4 10 0,0
11.08.2020 19:00:00 31,4 19,3 32,1 13 7 22 12 N 1013,0 10 0,0
11.08.2020 18:00:00 32,1 19,4 33,9 13 7 25 14 NNW 1012,9 10 0,0
11.08.2020 17:00:00 32,0 20,3 34,4 13 7 22 12 WNW 1013,5 10 0,0
11.08.2020 16:00:00 31,2 19,8 32,6 13 7 18 10 WNW 1014,1 10 0,0
11.08.2020 15:00:00 31,3 19,4 32,6 11 6 14 8 W 1014,4 10 0,0
11.08.2020 14:00:00 30,7 19,7 32,7 8 4 11 6 - 1014,5 10 0,0
11.08.2020 13:00:00 30,8 18,1 33,4 8 4 14 8 - 1014,6 10 0,0
11.08.2020 12:00:00 29,1 18,5 31,8 8 4 14 8 E 1014,7 10 0,0
11.08.2020 11:00:00 28,0 18,6 30,9 9 5 14 8 ENE 1014,6 10 0,0
11.08.2020 10:00:00 25,9 18,5 27,7 8 4 14 8 E 1014,6 10 0,0
11.08.2020 09:00:00 24,0 18,1 24,8 11 6 18 10 E 1014,6 10 0,0
11.08.2020 08:00:00 22,6 17,6 22,5 15 8 22 12 ENE 1013,9 10 0,0
11.08.2020 07:00:00 20,0 17,0 19,0 11 6 14 8 ENE 1013,7 10 0,0
11.08.2020 06:00:00 20,1 16,9 17,8 8 4 11 6 NE 1013,7 10 0,0
11.08.2020 05:00:00 19,3 16,4 17,3 8 4 11 6 ENE 1013,7 10 0,0
11.08.2020 04:00:00 21,1 16,8 19,0 8 4 11 6 E 1014,1 10 0,0
11.08.2020 03:00:00 21,3 16,7 19,6 9 5 14 8 ENE 1014,2 10 0,0
11.08.2020 02:00:00 23,2 16,6 19,8 11 6 11 6 ENE 1014,1 10 0,0
11.08.2020 01:00:00 23,8 16,5 20,0 8 4 14 8 E 1014,5 10 0,0
11.08.2020 00:00:00 24,7 16,6 20,8 9 5 11 6 E 1014,2 10 0,0
10.08.2020 23:00:00 25,5 16,7 22,2 9 5 11 6 ENE 1014,0 10 0,0
10.08.2020 22:00:00 26,5 16,9 23,6 8 4 14 8 ENE 1013,9 10 0,0
10.08.2020 21:00:00 28,8 16,6 27,5 13 7 22 12 NE 1013,2 10 0,0
10.08.2020 20:00:00 31,7 16,6 31,4 16 9 25 14 NE 1012,7 10 0,0
10.08.2020 19:00:00 33,2 15,1 34,1 15 8 25 14 ENE 1012,5 10 0,0
10.08.2020 18:00:00 33,4 16,0 35,2 15 8 25 14 ENE 1012,8 10 0,0
10.08.2020 17:00:00 33,6 15,6 33,4 9 5 22 12 E 1013,2 10 0,0
10.08.2020 16:00:00 33,2 15,3 36,0 13 7 29 16 E 1013,3 10 0,0
10.08.2020 15:00:00 32,8 15,3 36,5 15 8 25 14 ENE 1013,8 10 0,0
10.08.2020 14:00:00 31,2 16,5 32,5 5 3 22 12 - 1014,1 10 0,0
10.08.2020 13:00:00 29,7 16,8 32,1 9 5 14 8 - 1014,4 10 0,0
10.08.2020 12:00:00 28,6 17,1 30,1 8 4 14 8 E 1014,6 10 0,0
10.08.2020 11:00:00 27,7 17,3 29,1 8 4 14 8 E 1014,6 10 0,0
10.08.2020 10:00:00 25,6 17,7 27,4 13 7 18 10 E 1014,5 10 0,0
10.08.2020 09:00:00 23,3 17,7 24,0 11 6 18 10 E 1014,4 10 0,0
10.08.2020 08:00:00 21,5 17,3 21,1 15 8 22 12 ENE 1014,1 10 0,0
10.08.2020 07:00:00 17,9 16,4 16,9 9 5 11 6 ENE 1014,1 10 0,0
10.08.2020 06:00:00 17,7 15,7 16,2 8 4 11 6 E 1014,1 10 0,0
10.08.2020 05:00:00 20,3 16,6 18,0 5 3 14 8 E 1014,6 10 0,0
10.08.2020 04:00:00 21,4 17,0 19,7 11 6 18 10 E 1015,0 10 0,0
10.08.2020 03:00:00 20,1 17,6 17,4 8 4 11 6 E 1015,0 10 0,0
10.08.2020 02:00:00 21,2 18,2 18,1 8 4 11 6 ENE 1014,6 10 0,0
10.08.2020 01:00:00 23,1 18,4 18,5 8 4 11 6 ENE 1014,8 10 0,0
10.08.2020 00:00:00 24,4 18,7 20,4 5 3 11 6 ENE 1014,9 10 0,0
09.08.2020 23:00:00 26,0 18,8 23,7 8 4 14 8 E 1015,0 10 0,0
09.08.2020 22:00:00 27,3 19,1 25,7 11 6 18 10 NE 1014,9 10 0,0
09.08.2020 21:00:00 29,4 18,2 28,3 13 7 22 12 NNE 1014,5 10 0,0
09.08.2020 20:00:00 31,7 15,9 31,2 16 9 25 14 NE 1014,3 10 0,0
09.08.2020 19:00:00 33,1 16,5 33,9 16 9 29 16 ENE 1014,1 10 0,0
09.08.2020 18:00:00 33,9 17,4 35,2 16 9 29 16 ENE 1014,5 10 0,0
09.08.2020 17:00:00 34,3 15,4 37,0 5 3 22 12 SE 1015,1 10 0,0
09.08.2020 16:00:00 34,9 16,8 37,1 13 7 29 16 NE 1015,6 10 0,0

tt = Température de l'air
td = dewpoint
tt 5cm = Température de l'air 5cm
ff = Vitesse du vent
fx = gusts
dd = Direction du vent
ppp = reduced air pressure
vv = visibility
rr = Quantités de précipitations

stations d'obs. à proximité